Aurora, IL

5:51 PM CST on December 14, 2017 (GMT -0600)
Aurora Municipal

Weather History for KARR - September, 2012

Change the Weather History Date:

Sunday, September 2, 2012

  Actual Average Record
Temperature  
Mean Temperature 75 °F 68 °F  
Max Temperature 82 °F 80 °F 92 °F (2008)
Min Temperature 68 °F 57 °F 39 °F (2017)
Degree Days  
Heating Degree Days 0 1  
Month to date heating degree days 0 2  
Since 1 July heating degree days 19 26  
Cooling Degree Days 10 4  
Month to date cooling degree days 17 8  
Year to date cooling degree days 954 592  
Growing Degree Days 26 (Base 50)    
Moisture  
Dew Point 70 °F    
Average Humidity 78    
Maximum Humidity 87    
Minimum Humidity 69    
Precipitation  
Precipitation 0.02 in 0.08 in 1.15 in (2010)
Month to date precipitation 0.09 0.17  
Year to date precipitation 16.58 25.37  
Sea Level Pressure  
Sea Level Pressure 29.90 in    
Wind  
Wind Speed 10 mph (NE)    
Max Wind Speed 17 mph    
Max Gust Speed 22 mph    
Visibility 8 miles    
Events Rain    
T = Trace of Precipitation, MM = Missing Value Source: NWS Daily Summary

Daily Weather History Graph

Daily Weather History Graph

Search for Another Location

Airport or City:

Trip Planner

Search our weather history database for the weather conditions in past years. The results will help you decide how hot, cold, wet, or windy it might be!

Date:

Astronomy

Sep. 02, 2012 Rise Set
Actual Time 6:21 AM CDT 7:24 PM CDT
Civil Twilight 5:52 AM CDT 7:53 PM CDT
Nautical Twilight 5:18 AM CDT 8:27 PM CDT
Astronomical Twilight 4:43 AM CDT 9:02 PM CDT
Moon 8:08 PM CDT (9/2) 8:32 AM CDT (9/2)
Length of Visible Light 14h 00m
Length of Day
13h 03m
Waning Gibbous, 95% of the Moon is Illuminated
Sep 2
Waning Gibbous
Sep 8
Last Quarter
Sep 15
New
Sep 22
First Quarter
Sep 29
Full

Hourly Weather History & Observations

Time (CDT) Temp. Heat Index Dew Point Humidity Pressure Visibility Wind Dir Wind Speed Gust Speed Precip Events Conditions
12:52 AM 73.0 °F - 70.0 °F 90% 29.93 in 8.0 mi ENE 10.4 mph - N/A   Partly Cloudy
1:52 AM 73.0 °F - 70.0 °F 90% 29.92 in 8.0 mi ENE 10.4 mph - N/A   Mostly Cloudy
2:52 AM 73.0 °F - 70.0 °F 90% 29.90 in 7.0 mi NE 9.2 mph - N/A   Partly Cloudy
3:30 AM 73.4 °F - 69.8 °F 88% 29.91 in 7.0 mi ENE 9.2 mph - N/A   Mostly Cloudy
3:52 AM 73.0 °F - 70.0 °F 90% 29.89 in 7.0 mi ENE 10.4 mph - N/A   Overcast
4:52 AM 73.0 °F - 70.0 °F 90% 29.88 in 7.0 mi ENE 6.9 mph - N/A   Mostly Cloudy
5:00 AM 73.4 °F - 69.8 °F 88% 29.88 in 6.0 mi NE 6.9 mph - N/A   Mostly Cloudy
5:38 AM 73.4 °F - 69.8 °F 88% 29.89 in 6.0 mi NE 9.2 mph - N/A   Mostly Cloudy
6:52 AM 73.0 °F - 70.0 °F 90% 29.89 in 6.0 mi NE 10.4 mph - N/A   Overcast
8:52 AM 73.9 °F - 70.0 °F 87% 29.91 in 6.0 mi NE 9.2 mph - N/A   Mostly Cloudy
9:52 AM 73.9 °F - 69.1 °F 85% 29.92 in 6.0 mi NE 11.5 mph - N/A   Haze
10:52 AM 75.9 °F - 69.1 °F 79% 29.91 in 8.0 mi NE 10.4 mph - N/A   Overcast
11:52 AM 75.9 °F - 71.1 °F 85% 29.91 in 6.0 mi ENE 8.1 mph - 0.02 in Rain Light Rain
12:08 PM 78.8 °F - 71.6 °F 78% 29.92 in 9.0 mi ENE 13.8 mph - 0.00 in   Mostly Cloudy
12:34 PM 80.6 °F 83.9 °F 69.8 °F 70% 29.91 in 10.0 mi ENE 12.7 mph 19.6 mph 0.00 in   Mostly Cloudy
12:52 PM 80.1 °F 83.6 °F 71.1 °F 74% 29.89 in 10.0 mi East 15.0 mph 19.6 mph 0.00 in   Mostly Cloudy
1:52 PM 80.1 °F 83.6 °F 71.1 °F 74% 29.88 in 7.0 mi ENE 13.8 mph 21.9 mph N/A   Mostly Cloudy
2:52 PM 81.0 °F 84.9 °F 71.1 °F 72% 29.87 in 7.0 mi ENE 12.7 mph - N/A   Mostly Cloudy
3:52 PM 81.0 °F 84.9 °F 71.1 °F 72% 29.87 in 8.0 mi ENE 13.8 mph 20.7 mph N/A   Mostly Cloudy
4:52 PM 81.0 °F 84.9 °F 71.1 °F 72% 29.87 in 9.0 mi ENE 13.8 mph 19.6 mph N/A   Unknown
5:52 PM 81.0 °F 84.4 °F 70.0 °F 69% 29.88 in 9.0 mi ENE 13.8 mph - N/A   Partly Cloudy
6:52 PM 78.1 °F - 69.1 °F 74% 29.88 in 10.0 mi NE 10.4 mph - N/A   Partly Cloudy
7:52 PM 75.0 °F - 69.1 °F 82% 29.90 in 10.0 mi NNE 5.8 mph - N/A   Clear
8:52 PM 73.9 °F - 68.0 °F 82% 29.91 in 10.0 mi NE 8.1 mph - N/A   Clear
9:52 PM 73.9 °F - 66.9 °F 79% 29.91 in 10.0 mi NE 8.1 mph - N/A   Clear
10:52 PM 72.0 °F - 66.0 °F 81% 29.91 in 10.0 mi NNE 5.8 mph - N/A   Clear
11:52 PM 70.0 °F - 64.9 °F 84% 29.91 in 10.0 mi NE 5.8 mph - N/A   Clear